Airfield :
LOGIN :

Register | Disclaimer

   EN    FR    IT 

 










Legend :    VFR   Marginal VFR   IFR   Intensive IFR   Very Intensive IFR
Visi :
Ceiling :
>= 8 km
>= 3000ft
5 to 8 km
1000 to 3000 ft
1500m to 5 km
500 to 1000 ft
800 to 1500m
200 to 500 ft
< 800m
< 200 ft
Symbols :   Thunderstorms  Fog  Heavy snow  Heavy precipitations  Wind > 20 kt
SIGMETs :     Misc.  Thunderstorms  Icing  Turbulence  Mountain Waves  Volcanic Ashes






- Airport Elevation : 3360 ft
- IATA code : QSF


DAAS - 8 Mai 45

CURRENT METAR :
  • 291000Z 23007KT CAVOK 19/04 Q1012

EXPIRED METARs :
  • 290900Z 25007KT 9999 FEW030 17/05 Q1013
  • 290800Z 27008KT 9999 FEW030 15/05 Q1012
  • 290700Z 26004KT 9999 FEW030 13/06 Q1012

TAF TAF DAAS
Valid from the 29 at 06:00 until the 30 at 06:00 UTC


290500Z 2906/3006 VRB02KT 9999 FEW030 SCT100
BECMG 2910/2912 25010KT
PROB30 2918/2924 FEW026TCU
BECMG 2919/2922 VRB02KT



MET'MAP, your aeronautical weather chart ! - Copyright ORBIFLY December 2007 - Disclaimer

ORBIFLY MET'MAP TEAM :

Programming & Development : Alexandra Zaïnal
Original concept : Baudouin d'Aumeries
Technical & hardware support : Manuel Goepfert
Assistance : Marc-Olivier Méhu




SOURCES & CREDITS :

   NOAA